DECAYED

STARLINK-1148, 45052 (Decayed)

Orbit data source: Space-Track

STARLINK-1148, 45052 was a payload satellite owned by SpaceX/Seattle (US) in LEO that was launched on Wed, 29 Jan 2020 UTC via an FALCON 9 launch vehicle from the Air Force Eastern Test Range (AFETR). Payload-class satellites include a variety of spacecraft equipped with specific instruments for various scientific and technological missions. These include communications satellites like Starlink; space stations such as the ISS; scientific satellites like the Hubble; Earth observation satellites from companies like Planet Labs, Umbra, and HawkEye 360; GPS; miniature CubeSats for education and research; and military/defense satellites.

Not visible in the next 10 days
Identifier
45052, 2020-006J
Orbit
Decayed
Country
Flag of USUS
Related business
Manufacturer
SpaceX/Seattle
Mission
Decayed Commercial Communications
Bus & Motor
STARLINK, Unknown motor
Mass
260 kg wet, ~248 kg dry
Launch date (UTC)
2020-01-29 (6 years ago)
Launch vehicle
FALCON 9
Launch site
Air Force Eastern Test Range (AFETR)
Object type
Payload
Rocket body
Debris
Shape & HBR
Box + 1 Pan, 10.1 m
Radar Cross Section
13.562 m², Large (>1 m²)

Expand to show TLE details & history
Last TLE update: 7 months ago

TLE from 7 months ago
0 STARLINK-1148
1 45052U 20006J   25209.92550118  .19863906  12618-4  18863-3 0  9996
2 45052  53.0255  99.5118 0005276 236.4775 214.3634 16.50973558304633
Epoch: 2025-07-28T22:12Z
TLE epoch observation values (Epoch: 2025-07-28T22:12:43.301Z)
Latitude
53.17718°
Longitude
-89.15237°
Altitude
146.079 km
Speed
7.823 km/s
True Right ascension
12h 43m 25s
True Declination
52° 59' 47"
Sunlit
Object was in daylight at epoch
Visualization orbit readout
Latitude
Unknown
Longitude
Unknown
Altitude
Unknown
Speed
Unknown
Apparent Right ascension
Unknown
Apparent Declination
Unknown
Sunlit
N/A
Visualization observer readout
Local Sidereal Time
07:44:38
Azimuth
Unknown
Elevation
Unknown
Doppler factor
Unknown
Orbital elements
Apogee altitude
140.503 km
Perigee altitude
133.628 km
Semi-major axis
6,515.202 km
Eccentricity
0.00053
Inclination
53.0255°
RAAN
99.5118°
Arg. of periapsis
236.4775°
True anomaly
214.32929°
Mean anomaly
214.3634°
Eccentric anomaly
214.34634°
Mean motion
4.12716 °/min
Orbital period
87.23 mins
BSTAR
0.00018863
Loading maneuver chart data...
Computing Atmospheric mass density...

Documentation

Showing up to 5 results
|